Regional Weather Roundup
Issued by NWS

Home | Current Version | Previous Version | Graphics & Text | Print | Product List | Glossary On
Versions: 1 2 3 4 5 6 7 8 9 10 11 12 13 14 15 16 17 18 19 20 21 22 23 24 25 26 27 28 29 30 31 32 33 34 35 36 37 38 39 40 41 42 43 44 45 46 47 48 49 50
000
ASUS43 KLSX 241759
RWRMO

WEATHER SUMMARY FOR MISSOURI
NATIONAL WEATHER SERVICE SPRINGFIELD MO
100 PM CDT THU JUL 24 2014

NOTE: "FAIR" INDICATES FEW OR NO CLOUDS BELOW 12,000 FEET WITH NO
       SIGNIFICANT WEATHER AND/OR OBSTRUCTIONS TO VISIBILITY.
       CURRENT SKY AND/OR WEATHER CONDITIONS ARE NOT AVAILABLE FOR
       CHILLICOTHE AND FARMINGTON.

MOZ001>031-035>038-043-044-053-054-241900-
...NORTHERN AND WESTERN MISSOURI...

CITY           SKY/WX    TMP DP  RH WIND       PRES   REMARKS
KANSAS CTY INT MOSUNNY   79  58  48 SE13G18   30.14F
6HR MIN TEMP:  67; 6HR MAX TEMP:  80;

KANSAS C DTWN  SUNNY     81  57  43 SE12G18   30.13S
6HR MIN TEMP:  68; 6HR MAX TEMP:  82;

LEE`S SUMMIT   SUNNY     78  58  49 SE12      30.15F
6HR MIN TEMP:  64; 6HR MAX TEMP:  79;

ST JOSEPH      SUNNY     80  60  50 SE13      30.13F
6HR MIN TEMP:  66; 6HR MAX TEMP:  80;

CHILLICOTHE      N/A     79  58  48 SE6       30.17F
6HR MIN TEMP:  61; 6HR MAX TEMP:  79;

KIRKSVILLE     MOSUNNY   77  60  55 CALM      30.18F
6HR MIN TEMP:  60; 6HR MAX TEMP:  77;


$$
MOZ066>068-077>081-088>096-101>105-241900-
...SOUTHWEST MISSOURI...

CITY           SKY/WX    TMP DP  RH WIND       PRES   REMARKS
SPRINGFIELD    SUNNY     80  56  43 E7        30.14F
6HR MIN TEMP:  67; 6HR MAX TEMP:  80;

JOPLIN         MOSUNNY   84  62  47 SE6       30.11F
6HR MIN TEMP:  67; 6HR MAX TEMP:  84;


$$
MOZ032>034-039>042-045>050-055>058-069>072-241900-
...CENTRAL MISSOURI...

CITY           SKY/WX    TMP DP  RH WIND       PRES   REMARKS
COLUMBIA       SUNNY     79  56  45 E9        30.16F
6HR MIN TEMP:  61; 6HR MAX TEMP:  79;

JEFFERSON CITY SUNNY     78  56  46 SE9       30.14F
6HR MIN TEMP:  63; 6HR MAX TEMP:  78;

ROLLA          SUNNY     78  52  40 N9        30.15S
6HR MIN TEMP:  62; 6HR MAX TEMP:  79;

SEDALIA        SUNNY     81  58  45 SE13      30.15F
6HR MIN TEMP:  63; 6HR MAX TEMP:  81;

OSAGE BEACH    MOSUNNY   81  54  39 E5        30.15F

$$
MOZ051-052-059>065-241900-
...EAST CENTRAL MISSOURI...

CITY           SKY/WX    TMP DP  RH WIND       PRES   REMARKS
ST LOUIS INTL  PTSUNNY   78  55  44 N8        30.14F
6HR MIN TEMP:  63; 6HR MAX TEMP:  79;

SPIRIT OF STL  MOSUNNY   79  55  43 NE10G16   30.12F
6HR MIN TEMP:  58; 6HR MAX TEMP:  79;

ST CHARLES     SUNNY     79  55  43 N10       30.13F
6HR MIN TEMP:  62; 6HR MAX TEMP:  79;


$$
MOZ072>076-082>087-097>100-106>115-241900-
...SOUTH CENTRAL AND SOUTHEAST MISSOURI...

CITY           SKY/WX    TMP DP  RH WIND       PRES   REMARKS
CAPE GIRARDEAU MOSUNNY   78  62  57 N10       30.08F
6HR MIN TEMP:  60; 6HR MAX TEMP:  79;

FARMINGTON     SUNNY     75  48  38 N3        30.15F
6HR MIN TEMP:  61; 6HR MAX TEMP:  75;

POPLAR BLUFF   SUNNY     79  52  38 N9        30.08F
6HR MIN TEMP:  63; 6HR MAX TEMP:  80;

WEST PLAINS    SUNNY     77  55  46 VRB5      30.15F
6HR MIN TEMP:  64; 6HR MAX TEMP:  78;


$$



USA.gov is the U.S. government's official web portal to all federal, state and local government web resources and services.